Location: Newark
(12.4436°N, 0.6167°W)
Time: 20:39:51
(UTC+00:00)

Vanguard 2 - Pass Details

Date: 15 December 2019
Orbit: 553 x 2938 km, 32.9° (Epoch: 18 January)

Event Time Altitude Azimuth Distance (km) Brightness Sun altitude
Rises 05:11:14 0° 304° (NW) 6,652 - -15.3°
Reaches altitude 10° 05:15:47 10° 309° (NW) 5,733 - -14.3°
Exits shadow 05:16:58 13° 310° (NW) 5,499 11.3 -14.0°
Maximum altitude 05:33:21 56° 24° (NNE) 3,102 10.6 -10.3°
Drops below altitude 10° 05:47:05 10° 99° (E) 4,621 13.1 -7.2°
Sets 05:50:16 0° 103° (ESE) 5,343 14.1 -6.5°
